Location: Le Moustier
(44.1000°N, 6.5167°E)
Time: 07:08:01
(UTC+00:00)

Meteor 2-20 - Pass Details

Date: 13 December 2025
Orbit: 937 x 959 km, 82.5° (Epoch: 13 January)

Event Time Altitude Azimuth Distance (km) Brightness Sun altitude
Rises 17:01:12 0° 174° (S) 3,625 7.7 -11.3°
Reaches altitude 10° 17:03:43 10° 171° (S) 2,682 7.0 -11.7°
Maximum altitude 17:09:44 59° 93° (E) 1,094 4.5 -12.7°
Drops below altitude 10° 17:15:46 10° 16° (NNE) 2,691 6.5 -13.8°
Sets 17:18:18 0° 13° (NNE) 3,638 7.2 -14.2°
